Weather History for Adrian, MI

Change the Weather History Date:

Monday, February 11, 2013

  Actual Average Record
Temperature  
Mean Temperature 38 °F -  
Max Temperature 44 °F 32 °F 69 °F (1999)
Min Temperature 30 °F 14 °F -9 °F (1979)
Degree Days  
Heating Degree Days 27    
Moisture  
Dew Point 30 °F    
Average Humidity 74    
Maximum Humidity 93    
Minimum Humidity 64    
Precipitation  
Precipitation 0.00 in - - ()
Sea Level Pressure  
Sea Level Pressure 29.73 in    
Wind  
Wind Speed 17 mph (WSW)    
Max Wind Speed 28 mph    
Max Gust Speed 40 mph    
Visibility 10 miles    
Events      
Averages and records for this station are not official NWS values.
T = Trace of Precipitation, MM = Missing Value Source: NWS Daily Summary

Daily Weather History Graph

Daily Weather History Graph

Search for Another Location

Airport:

Trip Planner

Search our weather history database for the weather conditions in past years. The results will help you decide how hot, cold, wet, or windy it might be!

Date:

Astronomy

Feb. 11, 2013 Rise Set
Actual Time 7:36 AM EST 6:04 PM EST
Civil Twilight 7:08 AM EST 6:33 PM EST
Nautical Twilight 6:35 AM EST 7:06 PM EST
Astronomical Twilight 6:03 AM EST 7:38 PM EST
Moon 7:58 AM EST (2/11) 8:03 PM EST (2/11)
Length of Visible Light 11h 25m
Length of Day
10h 27m
Waxing Crescent, 3% of the Moon is Illuminated
Feb 11
Waxing Crescent
Feb 17
First Quarter
Feb 25
Full
Mar 4
Last Quarter
Mar 11
New

Hourly Weather History & Observations

Time (EST) Temp. Windchill Dew Point Humidity Pressure Visibility Wind Dir Wind Speed Gust Speed Precip Events Conditions
12:14 AM 42.8 °F 36.6 °F 39.2 °F 87% 29.69 in 10.0 mi SSW 11.5 mph - N/A   Overcast
12:53 AM 43.0 °F 35.7 °F 41.0 °F 93% 29.70 in 9.0 mi SSW 15.0 mph - N/A   Overcast
1:53 AM 43.0 °F 35.7 °F 41.0 °F 93% 29.67 in 8.0 mi SSW 15.0 mph 24.2 mph N/A   Overcast
2:53 AM 44.1 °F 37.1 °F 42.1 °F 93% 29.65 in 8.0 mi SSW 15.0 mph - N/A   Overcast
3:53 AM 44.1 °F 36.5 °F 42.1 °F 93% 29.62 in 8.0 mi SSW 17.3 mph 26.5 mph N/A   Overcast
4:36 AM 42.8 °F 34.8 °F 41.0 °F 93% 29.59 in 7.0 mi SSW 17.3 mph - N/A   Overcast
4:53 AM 43.0 °F 34.8 °F 41.0 °F 93% 29.60 in 8.0 mi SSW 18.4 mph - N/A   Mostly Cloudy
5:01 AM 44.6 °F 37.2 °F 41.0 °F 87% 29.58 in 9.0 mi SW 17.3 mph - N/A   Scattered Clouds
5:49 AM 44.6 °F 38.8 °F 39.2 °F 81% 29.59 in 10.0 mi WSW 11.5 mph - N/A   Mostly Cloudy
5:53 AM 44.1 °F 38.6 °F 39.9 °F 85% 29.62 in 10.0 mi WSW 10.4 mph - N/A   Mostly Cloudy
6:53 AM 42.1 °F 34.9 °F 33.1 °F 70% 29.64 in 10.0 mi West 13.8 mph 26.5 mph N/A   Overcast
7:53 AM 39.9 °F 31.8 °F 28.9 °F 65% 29.66 in 10.0 mi West 15.0 mph 29.9 mph N/A   Mostly Cloudy
8:53 AM 37.9 °F 27.1 °F 28.9 °F 70% 29.67 in 10.0 mi West 23.0 mph 34.5 mph N/A   Overcast
9:21 AM 37.4 °F 27.5 °F 28.4 °F 70% 29.65 in 10.0 mi West 18.4 mph 32.2 mph N/A   Overcast
9:53 AM 36.0 °F 25.0 °F 26.1 °F 67% 29.69 in 10.0 mi West 20.7 mph 32.2 mph N/A   Overcast
10:12 AM 35.6 °F 24.0 °F 26.6 °F 70% 29.68 in 10.0 mi West 23.0 mph 38.0 mph N/A   Overcast
10:31 AM 35.6 °F 23.0 °F 26.6 °F 70% 29.68 in 10.0 mi West 27.6 mph 36.8 mph N/A   Overcast
10:53 AM 35.1 °F 22.5 °F 25.0 °F 67% 29.71 in 10.0 mi West 26.5 mph 40.3 mph N/A   Overcast
11:03 AM 35.6 °F 24.8 °F 24.8 °F 65% 29.69 in 10.0 mi West 19.6 mph 31.1 mph N/A   Overcast
11:53 AM 35.1 °F 23.5 °F 24.1 °F 64% 29.72 in 10.0 mi West 21.9 mph 34.5 mph N/A   Overcast
12:53 PM 34.0 °F 22.1 °F 23.0 °F 64% 29.73 in 10.0 mi West 21.9 mph 39.1 mph N/A   Overcast
1:53 PM 35.1 °F 24.8 °F 24.1 °F 64% 29.73 in 10.0 mi West 17.3 mph 35.7 mph N/A   Overcast
2:53 PM 35.1 °F 22.7 °F 24.1 °F 64% 29.74 in 10.0 mi West 25.3 mph 39.1 mph N/A   Overcast
3:53 PM 34.0 °F 22.1 °F 24.1 °F 67% 29.77 in 10.0 mi West 21.9 mph 33.4 mph N/A   Overcast
4:53 PM 34.0 °F 23.0 °F 24.1 °F 67% 29.80 in 10.0 mi West 18.4 mph 28.8 mph N/A   Overcast
5:53 PM 34.0 °F 21.5 °F 24.1 °F 67% 29.83 in 10.0 mi West 24.2 mph 31.1 mph N/A   Overcast
6:53 PM 33.1 °F 22.2 °F 24.1 °F 70% 29.86 in 10.0 mi West 17.3 mph 32.2 mph N/A   Overcast
7:53 PM 33.1 °F 23.4 °F 23.0 °F 66% 29.87 in 10.0 mi West 13.8 mph 31.1 mph N/A   Overcast
8:18 PM 33.8 °F 22.5 °F 23.0 °F 65% 29.86 in 10.0 mi WNW 19.6 mph 29.9 mph N/A   Overcast
8:44 PM 33.8 °F 24.8 °F 23.0 °F 65% 29.87 in 10.0 mi WNW 12.7 mph 26.5 mph N/A   Overcast
8:53 PM 33.1 °F 21.9 °F 23.0 °F 66% 29.90 in 10.0 mi WNW 18.4 mph 32.2 mph N/A   Overcast
9:53 PM 32.0 °F 22.1 °F 23.0 °F 69% 29.91 in 10.0 mi WNW 13.8 mph 25.3 mph N/A   Overcast
10:53 PM 32.0 °F 20.8 °F 21.9 °F 66% 29.92 in 10.0 mi WNW 17.3 mph 29.9 mph N/A   Overcast
11:53 PM 30.9 °F 19.4 °F 21.9 °F 69% 29.95 in 10.0 mi WNW 17.3 mph 29.9 mph N/A   Overcast